www.pogodaiklimat.ru

Погода и климат >> Архив погоды >> Гренландия >> Narsarsuaq


ПОГОДА в Narsarsuaq

  • Прогноз погоды в Narsarsuaq
  • Монитор погоды в Narsarsuaq

АРХИВ ПОГОДЫ в Narsarsuaq

Время (UTC), дата Ветер
(напр.,м/с)
 
Видим.   Явления Облачность Т
(С)
Тd
(С)
f
(%)
Тe
(С)
Тes
(С)
Комфортность P
(гПа)
Po
(гПа)
Тmin
(С)
Tmax
(С)
R
(мм)
R24
(мм)
S
(см)
19 16.07 ЮЗ 4 35 км 9/0
[]
+14.5 +4.6 51 +14 +16 1014.0 1010.2
20 16.07 З 5 35 км 9/0
[]
+13.6 +5.1 56 +12 +13 1014.3 1010.5
21 16.07 З 4 35 км 9/0
[]
+13.2 +5.3 59 +12 +13 1014.6 1010.9
22 16.07 ЮЗ 4 45 км 9/9 1500 м
[]
+13.0 +5.6 61 +12 +12 1014.6 1010.9
23 16.07 ЮЗ 5 45 км 9/0 2000 м
[]
+11.8 +6.4 69 +9 +9 1014.9 1011.1
00 17.07 В 3 40 км 9/9 1500 м
[]
+11.7 +6.8 72 +10 +10 1015.2 1011.4
01 17.07 ЮЗ 3 25 км морось {дождь} 9/9 1500 м
[]
+10.6 +7.4 81 +9 +9 1015.2 1011.4
02 17.07 СВ 2 40 км в посл. час дождь 9/9 330 м
[]
+9.7 +6.3 79 +8 +8 1015.2 1011.4
03 17.07 СВ 2 30 км слаб. ливневой дождь 9/9 420 м
[]
+9.1 +6.1 81 +7 +7 1015.0 1011.2
04 17.07 СВ 3 45 км в посл. час дождь {ливн. осадки} 9/9 540 м
[]
+8.5 +5.1 79 +6 +6 1014.8 1011.0
05 17.07 СВ 2 50 км {ливн. осадки, дождь} 9/9 540 м
[]
+8.4 +4.8 78 +7 +7 1014.6 1010.9
06 17.07 СВ 2 50 км 9/9 210 м
[]
+8.3 +4.5 77 +7 +7 1014.4 1010.6 +8.0 +15.3
07 17.07 СВ 2 30 км морось {дождь} 9/9 210 м
[]
+8.1 +4.8 80 +6 +6 1014.7 1010.9
08 17.07 СВ 2 35 км слаб. дождь 9/9 180 м
[]
+9.0 +6.4 84 +8 +8 1014.8 1011.0
09 17.07 СВ 2 19 км слаб. ливневой дождь 9/9 150 м
[]
+7.9 +5.7 86 +6 +6 1014.7 1010.9
10 17.07 СВ 2 35 км в посл. час морось {ливн. осадки, дождь} 9/9 210 м
[]
+9.0 +7.2 88 +7 +8 1014.4 1010.6
11 17.07 штиль 0 35 км {ливн. осадки, дождь} 9/9 180 м
[]
+10.1 +7.1 82 +9 +10 1014.1 1010.4
12 17.07 ЮЗ 2 35 км 9/9 240 м
[]
+11.2 +8.0 81 +10 +11 1013.9 1010.2
13 17.07 ЮЗ 3 35 км 9/9 240 м
[]
+12.5 +8.6 77 +11 +12 1013.9 1010.2
14 17.07 ЮЗ 4 35 км 10/10 400 м
[]
+12.2 +7.7 74 +10 +10 1013.9 1010.2
15 17.07 ЮЗ 4 27 км 9/9 700 м
[]
+13.0 +8.0 72 +11 +12 1013.7 1010.0
16 17.07 ЮЗ 3 25 км 9/9 1500 м
[]
+13.6 +7.7 67 +13 +14 1013.6 1009.9
17 17.07 ЮЗ 4 28 км 9/9 700 м
[]
+14.6 +7.1 61 +13 +14 1013.5 1009.8
18 17.07 ЮЗ 4 35 км 10/10 840 м
[]
+14.2 +7.3 63 +13 +13 1013.4 1009.7 +7.9 +15.5
19 17.07 ЮЗ 3 45 км 10/10 840 м
[]
+14.5 +7.8 64 +14 +14 1013.5 1009.8
20 17.07 ЮЗ 2 40 км 10/10 900 м
[]
+14.5 +7.5 63 +14 +14 1013.6 1009.9
21 17.07 ЮЗ 3 35 км 10/10 870 м
[]
+14.2 +7.0 62 +13 +13 1013.4 1009.7
22 17.07 Ю 2 45 км 9/9 900 м
[]
+13.3 +6.9 65 +13 +13 1013.4 1009.7
23 17.07 СВ 3 50 км 9/9 870 м
[]
+11.4 +4.9 64 +10 +10 1013.7 1010.0
00 18.07 СВ 2 45 км 10/10 870 м
[]
+11.2 +4.9 65 +10 +10 1014.2 1010.5
01 18.07 СВ 3 50 км 9/9 870 м
[]
+9.7 +4.2 69 +8 +8 1014.2 1010.4
02 18.07 СВ 2 45 км 10/10 720 м
[]
+10.2 +4.9 70 +9 +9 1014.3 1010.5
03 18.07 СВ 3 45 км 10/10 720 м
[]
+9.2 +4.1 70 +7 +7 1014.2 1010.4
04 18.07 СВ 3 45 км 10/10 630 м
[]
+9.3 +4.0 69 +7 +7 1014.1 1010.4
05 18.07 СВ 3 50 км 10/10 600 м
[]
+8.7 +3.7 71 +7 +7 1014.0 1010.2
06 18.07 СВ 2 50 км 10/10 600 м
[]
+8.6 +4.0 73 +7 +7 1013.9 1010.1 +8.4 +14.8
07 18.07 СВ 3 50 км 10/10 540 м
[]
+8.8 +3.8 71 +6 +6 1013.9 1010.1
08 18.07 СВ 3 45 км 9/9 720 м
[]
+9.0 +3.7 69 +7 +7 1013.3 1009.5
09 18.07 СВ 2 45 км 9/9 700 м
[]
+9.9 +4.1 67 +9 +9 1013.1 1009.4
10 18.07 СВ 2 35 км 10/10 630 м
[]
+11.3 +4.8 64 +11 +11 1013.1 1009.3
11 18.07 штиль 0 35 км 10/10 630 м
[]
+12.3 +6.7 69 +12 +12 1013.2 1009.5
12 18.07 З 2 30 км 10/10 630 м
[]
+13.4 +7.0 65 +13 +13 1013.2 1009.5
13 18.07 Ю 1 45 км 1/1 700 м
[]
+14.2 +6.8 61 +15 +28 опасность
простуды
1013.0 1009.3
14 18.07 ЮЗ 3 27 км н/о +15.3 +7.0 58 +15 +15 1012.7 1009.0
15 18.07 ЮЗ 2 30 км н/о +16.4 +6.6 52 +17 +17 1012.1 1008.4
16 18.07 ЮЗ 3 30 км н/о +17.1 +7.3 52 +17 +17 1011.4 1007.8
17 18.07 ЮЗ 5 30 км н/о +16.7 +7.5 55 +16 +16 1011.4 1007.8
18 18.07 ЮЗ 5 29 км н/о +17.2 +7.4 52 +17 +17 1011.1 1007.4 +8.4 +17.9
19 18.07 ЮЗ 4 35 км н/о +17.6 +7.4 51 +17 +17 1010.7 1007.0
20 18.07 ЮЗ 6 35 км н/о +15.9 +7.0 55 +15 +15 1010.9 1007.3
21 18.07 З 4 45 км н/о +15.6 +7.6 59 +15 +15 1010.9 1007.2
22 18.07 З 3 35 км н/о +15.1 +8.1 63 +15 +15 1010.7 1007.0
23 18.07 ЮЗ 7 30 км 1/1 1410 м
[]
+13.5 +7.1 65 +11 +11 1011.1 1007.4
00 19.07 ЮЗ 6 40 км н/о +11.8 +6.6 70 +9 +9 1011.9 1008.1
01 19.07 В 2 45 км 1/1 1380 м
[]
+11.1 +6.6 74 +10 +10 1012.1 1008.4
02 19.07 В 2 35 км 1/1 1260 м
[]
+10.2 +6.4 77 +9 +9 1012.3 1008.5
03 19.07 З 5 30 км 10/10 300 м
[]
+9.7 +6.1 78 +7 +7 1012.5 1008.7
04 19.07 ЮЗ 2 35 км 10/10 270 м
[]
+9.6 +6.2 79 +8 +8 1012.3 1008.6
05 19.07 В 1 35 км 10/10 270 м
[]
+9.7 +6.1 78 +9 +9 1012.1 1008.3
06 19.07 СВ 2 35 км 10/10 270 м
[]
+8.8 +4.4 74 +7 +7 1012.1 1008.3 +8.7 +18.2
07 19.07 СВ 2 45 км 10/10 240 м
[]
+8.7 +4.5 75 +7 +7 1012.0 1008.2
08 19.07 СВ 2 45 км 10/10 210 м
[]
+8.8 +4.6 75 +7 +7 1011.9 1008.1
09 19.07 СВ 3 40 км 10/10 210 м
[]
+9.3 +5.1 75 +7 +7 1012.0 1008.2
10 19.07 СВ 2 28 км 10/10 150 м
[]
+9.9 +5.9 76 +9 +9 1012.1 1008.3
11 19.07 ЮЗ 2 25 км 10/10 210 м
[]
+10.0 +6.4 78 +9 +9 1012.2 1008.5
12 19.07 ЮЗ 2 30 км 10/10 210 м
[]
+10.7 +6.4 75 +10 +10 1012.4 1008.6
13 19.07 ЮЗ 2 30 км 10/10 270 м
[]
+11.3 +6.8 74 +11 +11 1012.5 1008.7
14 19.07 З 3 23 км н/о +12.8 +6.9 67 +12 +12 1012.4 1008.6
15 19.07 З 3 22 км н/о +13.9 +7.0 63 +13 +13 1012.0 1008.3
16 19.07 З 3 14 км н/о +14.9 +7.2 60 +14 +14 1011.9 1008.2
17 19.07 ЮЗ 3 21 км н/о +16.0 +7.4 57 +16 +16 1011.6 1007.9
18 19.07 ЮЗ 4 26 км н/о +16.8 +7.3 53 +16 +16 1011.7 1008.1 +8.4 +16.8
19 19.07 З 4 30 км н/о +17.3 +6.9 50 +17 +17 1011.7 1008.1
20 19.07 ЮЗ 5 25 км н/о +16.9 +7.1 52 +16 +16 1011.9 1008.2
21 19.07 ЮЗ 4 35 км н/о +16.6 +6.5 51 +16 +16 1011.7 1008.0
22 19.07 З 3 28 км н/о +15.4 +6.8 56 +15 +15 1011.7 1008.1
23 19.07 ЮЗ 3 28 км н/о +13.6 +7.9 68 +13 +13 1012.1 1008.4
00 20.07 В 3 40 км н/о +12.8 +5.4 61 +12 +12 1012.4 1008.7
01 20.07 В 1 35 км н/о +11.1 +6.6 74 +11 +11 1012.9 1009.2
02 20.07 штиль 0 35 км н/о +9.2 +5.8 79 +9 +9 1013.0 1009.2
03 20.07 ЮЗ 4 35 км 10/10 210 м
[]
+9.7 +6.7 82 +7 +7 1012.9 1009.1
04 20.07 ЮЗ 4 30 км 10/10 180 м
[]
+9.1 +6.5 84 +6 +6 1012.8 1009.1
05 20.07 З 3 5000 м дымка 10/10 150 м
[]
+8.7 +6.7 87 +6 +6 1012.6 1008.8
06 20.07 З 3 2300 м дымка 10/10 150 м
[]
+8.3 +6.8 90 +6 +6 1012.2 1008.5 +8.2 +17.5
07 20.07 З 3 1900 м дымка 10/10 150 м
[]
+8.1 +6.7 91 +6 +6 1012.1 1008.3
08 20.07 З 2 2200 м дымка 10/10 150 м
[]
+8.3 +6.8 90 +6 +6 1012.1 1008.3
09 20.07 СВ 2 3400 м дымка 10/10 150 м
[]
+8.0 +6.6 91 +6 +6 1011.9 1008.1
10 20.07 З 1 4700 м дымка 10/10 90 м
[]
+8.9 +7.1 88 +8 +8 1011.4 1007.6
11 20.07 З 2 30 км 10/10 270 м
[]
+9.5 +6.3 80 +8 +8 1011.3 1007.5
12 20.07 ЮЗ 2 40 км 9/9 270 м
[]
+9.9 +6.3 78 +9 +10 1010.8 1007.0
13 20.07 Ю 2 35 км 10/10 270 м
[]
+10.2 +6.4 77 +9 +9 1010.3 1006.6
14 20.07 ЮЗ 2 30 км 1/1 300 м
[]
+11.7 +6.1 68 +11 +23 опасность
простуды
1009.9 1006.2
15 20.07 ЮЗ 3 27 км 1/0
[]
+13.6 +6.7 63 +13 +22 1009.5 1005.8
16 20.07 Ю 2 26 км 1/0
[]
+14.6 +6.1 57 +15 +27 опасность
простуды
1009.0 1005.3
17 20.07 З 3 29 км н/о +15.3 +6.7 56 +15 +15 1008.8 1005.1
18 20.07 ЮЗ 5 30 км н/о +15.2 +7.4 60 +14 +14 1008.8 1005.1 +7.8 +16.4
19 20.07 З 4 30 км н/о +16.1 +7.2 56 +16 +16 1008.6 1004.9
20 20.07 ЮЗ 5 27 км н/о +15.1 +6.8 58 +14 +14 1008.7 1005.1
21 20.07 ЮЗ 5 35 км н/о +15.3 +6.2 55 +14 +14 1008.8 1005.1
22 20.07 ЮЗ 7 35 км н/о +14.6 +6.6 59 +13 +13 1009.0 1005.3
23 20.07 ЮЗ 5 40 км н/о +12.9 +6.5 65 +11 +11 1009.4 1005.7
00 21.07 В 3 45 км 1/0
[]
+12.4 +6.5 67 +11 +11 1009.7 1006.0
01 21.07 В 2 45 км н/о +11.2 +6.5 73 +10 +10 1010.2 1006.4
02 21.07 СВ 2 45 км 6/0
[]
+9.5 +5.3 75 +8 +8 1010.6 1006.9
03 21.07 В 2 45 км 9/0
[]
+10.0 +5.8 75 +9 +9 1010.9 1007.1
04 21.07 СВ 1 40 км 9/9 480 м
[]
+9.6 +5.8 77 +9 +9 1011.3 1007.5
05 21.07 ЮЗ 3 40 км 10/10 300 м
[]
+9.1 +6.1 81 +7 +7 1011.3 1007.5
06 21.07 ЮВ 1 40 км 10/10 240 м
[]
+9.2 +6.2 81 +10 +10 1011.5 1007.7 +8.4 +16.8
07 21.07 СВ 2 40 км 9/9 210 м
[]
+8.6 +4.8 77 +7 +7 1011.7 1007.9
08 21.07 В 1 2300 м дымка 9/9 120 м
[]
+8.4 +6.0 85 +8 +8 1012.1 1008.3
09 21.07 З 2 2800 м дымка 9/9 90 м
[]
+8.2 +6.8 91 +6 +6 1012.3 1008.5
10 21.07 З 3 2300 м дымка 9/9 120 м
[]
+8.6 +7.1 90 +6 +7 1012.4 1008.6
11 21.07 ЮЗ 2 2300 м дымка 9/9 150 м
[]
+8.4 +6.8 90 +6 +7 1012.6 1008.8
12 21.07 СВ 2 3000 м дымка 9/9 150 м
[]
+8.5 +6.7 88 +7 +8 1012.5 1008.7
13 21.07 ЮЗ 2 22 км 9/9 240 м
[]
+9.3 +6.3 82 +8 +9 1012.7 1008.9
14 21.07 ЮЗ 2 35 км 4/4 240 м
[]
+10.7 +6.0 73 +9 +17 1012.5 1008.7
15 21.07 З 2 21 км 9/9 360 м
[]
+12.1 +6.2 67 +11 +13 1012.1 1008.4
16 21.07 З 3 26 км 4/0
[]
+12.9 +5.8 62 +12 +21 1011.8 1008.1
17 21.07 ЮЗ 2 40 км 9/0
[]
+13.7 +6.0 60 +13 +19 1011.8 1008.1
18 21.07 З 2 30 км 9/0
[]
+13.8 +6.6 62 +13 +18 1012.0 1008.3 +7.9 +14.3
19 21.07 СЗ 1 35 км 9/0
[]
+13.4 +6.3 62 +14 +18 1012.1 1008.4
20 21.07 З 2 35 км 1/0
[]
+13.2 +6.6 64 +13 +17 1012.3 1008.6
21 21.07 ЮЗ 3 40 км н/о +12.9 +6.3 64 +12 +12 1012.4 1008.7
22 21.07 ЮЗ 2 35 км н/о +13.5 +5.8 60 +13 +13 1012.4 1008.7
23 21.07 СВ 2 45 км н/о +12.2 +4.6 60 +11 +11 1012.4 1008.6
00 22.07 СВ 2 45 км н/о +10.1 +4.3 67 +9 +9 1012.5 1008.8
01 22.07 СВ 3 45 км н/о +7.8 +3.0 72 +6 +6 1012.8 1009.0
02 22.07 В 2 45 км н/о +8.6 +4.6 76 +7 +7 1012.7 1008.9
03 22.07 СВ 2 45 км н/о +6.5 +2.8 77 +4 +4 1012.4 1008.6
04 22.07 СВ 2 45 км н/о +6.4 +2.7 77 +4 +4 1012.4 1008.6
05 22.07 СВ 2 45 км 1/1 240 м
[]
+5.8 +3.1 83 +3 +3 1012.3 1008.5
06 22.07 СВ 2 50 км 9/9 240 м
[]
+7.0 +3.5 78 +5 +5 1012.2 1008.4 +5.7 +13.9
07 22.07 СВ 2 50 км 9/9 240 м
[]
+7.1 +2.6 73 +6 +6 1012.1 1008.3
08 22.07 СВ 2 21 км 9/9 180 м
[]
+7.2 +3.1 75 +5 +5 1012.0 1008.2
09 22.07 СВ 2 35 км 9/9 210 м
[]
+8.4 +5.4 81 +7 +7 1011.9 1008.1
10 22.07 45 км 9/9 180 м
[]
+8.7 +5.5 80 1011.5 1007.7
11 22.07 СЗ 2 30 км 9/9 180 м
[]
+9.0 +5.4 78 +7 +8 1011.0 1007.3
12 22.07 ЮЗ 2 35 км 9/9 180 м
[]
+9.3 +5.7 78 +8 +8 1010.7 1007.0
13 22.07 ЮЗ 3 30 км 10/10 120 м
[]
+9.7 +6.5 80 +7 +7 1010.5 1006.8
14 22.07 З 2 24 км 1/0
[]
+11.4 +6.2 70 +10 +22 опасность
простуды
1009.8 1006.1
15 22.07 З 3 23 км н/о +12.8 +6.9 67 +12 +12 1009.3 1005.6
16 22.07 З 3 28 км н/о +13.7 +6.5 62 +13 +13 1008.9 1005.2
17 22.07 ЮЗ 4 35 км н/о +14.1 +5.9 58 +13 +13 1008.5 1004.8
18 22.07 З 3 30 км н/о +15.8 +5.5 50 +16 +16 1008.1 1004.4 +6.5 +16.4
19 22.07 ЮЗ 3 35 км н/о +15.8 +5.5 50 +15 +15 1007.8 1004.2
20 22.07 ЮЗ 3 30 км н/о +16.3 +5.3 48 +16 +16 1007.7 1004.0
21 22.07 ЮЗ 3 35 км н/о +15.4 +5.7 52 +15 +15 1007.6 1003.9
22 22.07 ЮЗ 4 40 км н/о +14.4 +5.3 54 +13 +13 1007.7 1004.0
23 22.07 ЮЗ 3 45 км н/о +12.9 +6.0 63 +12 +12 1007.7 1004.0
00 23.07 В 3 45 км н/о +11.5 +3.4 57 +10 +10 1007.5 1003.8
01 23.07 СВ 2 50 км н/о +9.4 +2.7 63 +8 +8 1007.4 1003.6
02 23.07 В 2 50 км н/о +8.3 +2.6 67 +7 +7 1007.1 1003.3
03 23.07 СВ 2 50 км н/о +7.9 +3.1 72 +7 +7 1006.8 1003.1
04 23.07 СВ 3 50 км н/о +6.9 +2.1 71 +4 +4 1006.8 1003.0
05 23.07 СВ 2 45 км н/о +6.9 +1.9 70 +5 +5 1006.6 1002.8
06 23.07 СВ 2 50 км 1/1 210 м
[]
+7.0 +3.3 77 +5 +5 1006.7 1002.9 +6.2 +16.7
07 23.07 СВ 2 50 км 10/10 240 м
[]
+6.8 +2.7 75 +5 +5 1007.1 1003.4
08 23.07 СВ 1 45 км 10/10 180 м
[]
+7.7 +3.1 73 +7 +7 1007.6 1003.9
09 23.07 СВ 2 29 км 10/10 150 м
[]
+8.7 +5.9 83 +7 +7 1008.2 1004.4
10 23.07 ЮЗ 2 12 км 10/10 120 м
[]
+8.4 +6.2 86 +6 +6 1008.5 1004.8
11 23.07 З 1 10 км 10/10 120 м
[]
+8.5 +6.5 87 +9 +9 1008.7 1004.9
12 23.07 ЮЗ 3 10 км 10/10 120 м
[]
+8.8 +6.4 85 +6 +6 1009.0 1005.2
14 23.07 ЮЗ 2 26 км 10/10 210 м
[]
+10.3 +6.3 76 +9 +9 1009.4 1005.7
15 23.07 З 1 18 км н/о +12.6 +6.0 64 +13 +13 1009.6 1005.9
16 23.07 З 3 22 км н/о +13.3 +6.2 62 +12 +12 1010.1 1006.4
17 23.07 ЮЗ 4 26 км н/о +15.7 +5.7 51 +15 +15 1010.6 1006.9

 

Местоположение метеостанции Narsarsuaq (Гренландия): широта 61.13 долгота -45.43 высота над уровнем моря 5 м.

В архиве по умолчанию представлена погода в Narsarsuaq за последнюю неделю. Архивные данные за месяц целиком и за предыдущие месяцы, начиная с января 2011 года, Вы можете получить, выбрав интересующий диапазон дат из раскрывающегося списка и нажав кнопку "Ввод!".


*Определитесь, кто Вы:
робот инопланетянин человек

Внимание! Время в таблицах - всемирное. Для получения местного времени необходимо прибавить поправку, которая равна -3 ч.

Смотрите также архив погоды в соседних городах и на ближайших метеорологических станциях:

Погода в Qaqortoq (Гренландия) (57 км)
Погода в Angisoq (Гренландия) (129 км)
Погода в Nunarsuit (Гренландия) (166 км)
Погода в Prins Christian Sun (Гренландия) (173 км)
Погода в Ikermiuarsuk (Гренландия) (200 км)
Погода в Paamiut (Гренландия) (244 км)
Погода в Ukiivik (Гренландия) (306 км)
Погода в Mittarfik Nuuk (Гренландия) (467 км)
Погода в Nuuk (Гренландия) (467 км)
Погода в Ikermiit (Гренландия) (481 км)

Пояснения к столбцам:

Ветер - указаны скорость ветра в м/с - средняя за 10 мин, порывы в срок и между сроками (в фигурных скобках) и направление, откуда дует ветер: С - северный, СВ - северо-восточный, В - восточный, ЮВ - юго-восточный, Ю - южный, ЮЗ - юго-западный, З - западный, СЗ - северо-западный.
Видимость - горизонтальная дальность видимости в метрах или километрах. При видимости от 1 до 10 км при отсутствии осадков обычно наблюдается дымка, при ухудшении видимости до 1 км и менее - туман. В сухую погоду видимость может ухудшаться дымом, пылью или мглою.
Явления - указаны атмосферные явления, наблюдавшиеся в срок или в последний час перед сроком; фигурными скобками обозначены явления, наблюдавшиеся между сроками (за 1-3 часа до срока); квадратными скобками обозначены град или гололедные отложения с указанием их диаметра в мм.
Облачность - указаны через наклонную черту общая и нижняя облачность в баллах и высота нижней границы облаков в метрах; квадратными скобками обозначены формы облаков: Ci - перистые, Cs - перисто-слоистые, Cc - перисто-кучевые, Ac - высококучевые, As - высокослоистые, Sc - слоисто-кучевые, Ns - слоисто-дождевые, Cu - кучевые, Cb - кучево-дождевые. Подробнее классификацию облаков см. в Атласе облаков (PDF).
T - Температура воздуха - температура, измеренная на высоте 2 м над землей.
Td - Температура точки росы - температура, при понижении до которой содержащийся в воздухе водяной пар достигнет насыщения.
f - Относительная влажность воздуха - влажноcть воздуха, измеренная на высоте 2 м над землей.
Te - Эффективная температура - температура, которую ощущает одетый по сезону человек в тени. Характеристика душности погоды. При расчете учитывается влияние влажности воздуха и скорости ветра на теплоощущения человека.
Tes - Эффективная температура на солнце - температура, которую ощущает человек, с поправкой на солнечный нагрев. Характеристика знойности погоды. Зависит от высоты солнца над горизонтом, облачности и скорости ветра. Ночью, в пасмурную погоду, а также при ветре 12 м/с и более поправка равна нулю.
P - Атмосферное давление - приведенное к уровню моря атмосферное давление.
Po - Атмосферное давление - измеренное на уровне метеостанции атмосферное давление.
Tmin - Минимальная температура - минимум температуры воздуха на высоте 2 м над землей.
Tmax - Максимальная температура - максимум температуры воздуха на высоте 2 м над землей.
R - Количество осадков - Количество выпавших осадков за период времени, мм. При наведении курсора мыши на число - период времени, за который выпало указанное количество осадков.
R24 - Количество осадков - Количество выпавших осадков за 24 часа, мм.
S - Снежный покров - Высота снежного покрова, см. При наведении курсора мыши на число - состояние снежного покрова и степень покрытия местности в баллах.